Location: Hawks Ness
(60.2333°N, 1.1667°W)
Time: 20:56:24
(UTC+00:00)

Cosmos 1980 - Pass Details

Date: 22 October 2019
Orbit: 840 x 846 km, 71.0° (Epoch: 17 November)

Event Time Altitude Azimuth Distance (km) Brightness Sun altitude
Exits shadow 04:33:33 17° 207° (SSW) 2,031 5.3 -18.8°
Maximum altitude 04:38:01 73° 125° (SE) 882 3.9 -18.3°
Drops below altitude 10° 04:43:40 10° 42° (NE) 2,471 6.8 -17.6°
Sets 04:46:08 0° 40° (NE) 3,410 7.6 -17.3°
